Weather History for KPSO - February, 2013

Change the Weather History Date:

Wednesday, February 6, 2013

  Actual Average (KDRO) Record (KDRO)
Temperature  
Mean Temperature 28 °F 26 °F  
Max Temperature 43 °F 40 °F 60 °F (1970)
Min Temperature 14 °F 12 °F -13 °F (1982)
Degree Days  
Heating Degree Days 36 39  
Month to date heating degree days 236  
Since 1 July heating degree days 4390  
Cooling Degree Days 0 0  
Month to date cooling degree days 0  
Year to date cooling degree days 0  
Moisture  
Dew Point 21 °F    
Average Humidity 76    
Maximum Humidity 97    
Minimum Humidity 41    
Precipitation  
Precipitation 0.00 in 0.04 in 0.30 in (1986)
Month to date precipitation 0.23  
Year to date precipitation 1.35  
Sea Level Pressure  
Sea Level Pressure 30.00 in    
Wind  
Wind Speed 1 mph (SSW)    
Max Wind Speed 12 mph    
Max Gust Speed -    
Visibility 10 miles    
Events      
T = Trace of Precipitation, MM = Missing Value Source: NWS Daily Summary

Daily Weather History Graph

Daily Weather History Graph

Search for Another Location

Airport or City:

Trip Planner

Search our weather history database for the weather conditions in past years. The results will help you decide how hot, cold, wet, or windy it might be!

Date:

Astronomy

Feb. 06, 2013 Rise Set
Actual Time 7:06 AM MST 5:38 PM MST
Civil Twilight 6:39 AM MST 6:05 PM MST
Nautical Twilight 6:08 AM MST 6:36 PM MST
Astronomical Twilight 5:37 AM MST 7:07 PM MST
Moon 3:50 AM MST 2:02 PM MST
Length of Visible Light 11h 26m
Length of Day
10h 32m
Waning Crescent, 16% of the Moon is Illuminated
Feb 6
Waning Crescent
Feb 10
New
Feb 17
First Quarter
Feb 25
Full
Mar 4
Last Quarter

Hourly Weather History & Observations

Time (MST) Temp. Windchill Dew Point Humidity Pressure Visibility Wind Dir Wind Speed Gust Speed Precip Events Conditions
12:15 AM 21.4 °F - 19.9 °F 94% 30.05 in 10.0 mi Calm Calm - N/A   Clear
12:35 AM 20.7 °F - 19.4 °F 95% 30.05 in 10.0 mi Calm Calm - N/A   Clear
12:55 AM 23.4 °F - 19.9 °F 87% 30.05 in 10.0 mi Calm Calm - N/A   Clear
1:15 AM 17.8 °F - 16.5 °F 95% 30.05 in 10.0 mi Calm Calm - N/A   Clear
1:35 AM 20.1 °F - 19.2 °F 96% 30.05 in 10.0 mi Calm Calm - N/A   Clear
1:55 AM 18.9 °F - 18.0 °F 96% 30.05 in 10.0 mi Calm Calm - N/A   Clear
2:15 AM 18.7 °F - 17.4 °F 95% 30.04 in 10.0 mi Calm Calm - N/A   Clear
2:35 AM 19.8 °F - 18.9 °F 96% 30.03 in 10.0 mi Calm Calm - N/A   Clear
2:55 AM 18.3 °F - 17.2 °F 96% 30.02 in 10.0 mi Calm Calm - N/A   Clear
3:15 AM 19.6 °F - 18.0 °F 93% 30.01 in 10.0 mi Calm Calm - N/A   Clear
3:35 AM 18.1 °F - 16.9 °F 95% 30.01 in 10.0 mi Calm Calm - N/A   Clear
3:55 AM 16.7 °F - 15.1 °F 93% 30.00 in 10.0 mi Calm Calm - N/A   Clear
4:15 AM 19.2 °F - 18.0 °F 95% 30.00 in 10.0 mi Calm Calm - N/A   Clear
4:35 AM 14.9 °F - 13.1 °F 93% 30.00 in 10.0 mi Calm Calm - N/A   Clear
4:55 AM 18.0 °F - 16.9 °F 96% 30.00 in 10.0 mi Calm Calm - N/A   Clear
5:15 AM 16.7 °F - 15.4 °F 95% 30.00 in 10.0 mi Calm Calm - N/A   Clear
5:35 AM 15.1 °F - 13.3 °F 93% 30.00 in 10.0 mi Calm Calm - N/A   Clear
6:15 AM 16.3 °F 10.8 °F 15.1 °F 95% 29.99 in 10.0 mi WNW 3.5 mph - N/A   Clear
6:35 AM 17.2 °F - 16.2 °F 96% 30.00 in 10.0 mi Calm Calm - N/A   Clear
6:55 AM 18.5 °F - 17.2 °F 95% 30.00 in 10.0 mi Calm Calm - N/A   Clear
7:15 AM 14.4 °F - 12.7 °F 93% 30.00 in 10.0 mi Calm Calm - N/A   Clear
7:35 AM 15.3 °F - 13.8 °F 94% 30.00 in 10.0 mi Calm Calm - N/A   Clear
7:55 AM 19.4 °F - 18.5 °F 96% 30.01 in 10.0 mi Calm Calm - N/A   Clear
8:15 AM 20.5 °F - 19.8 °F 97% 30.01 in 10.0 mi Calm Calm - N/A   Clear
8:35 AM 24.6 °F - 23.5 °F 96% 30.01 in 10.0 mi Calm Calm - N/A   Clear
8:55 AM 25.7 °F - 23.7 °F 92% 30.01 in 10.0 mi Calm Calm - N/A   Clear
9:15 AM 28.8 °F - 20.7 °F 72% 30.00 in 10.0 mi Calm Calm - N/A   Clear
9:35 AM 30.6 °F - 19.6 °F 64% 30.00 in 10.0 mi Calm Calm - N/A   Clear
9:55 AM 31.8 °F - 19.6 °F 61% 30.00 in 10.0 mi Calm Calm - N/A   Clear
10:15 AM 34.0 °F - 19.0 °F 54% 30.00 in 10.0 mi Calm Calm - N/A   Clear
10:35 AM 35.6 °F - 18.3 °F 50% 30.00 in 10.0 mi Calm Calm - N/A   Clear
10:55 AM 37.2 °F - 18.0 °F 46% 29.99 in 10.0 mi Calm Calm - N/A   Clear
11:15 AM 37.6 °F - 20.7 °F 51% 29.99 in 10.0 mi Calm Calm - N/A   Clear
11:35 AM 41.2 °F 39.2 °F 20.1 °F 43% 29.99 in 10.0 mi South 3.5 mph - N/A   Clear
11:55 AM 41.7 °F 39.8 °F 19.2 °F 41% 29.99 in 10.0 mi South 3.5 mph - N/A   Clear
12:15 PM 42.6 °F 40.9 °F 21.2 °F 43% 29.98 in 10.0 mi South 3.5 mph - N/A   Scattered Clouds
12:35 PM 43.3 °F 39.2 °F 21.7 °F 42% 29.97 in 10.0 mi SSW 6.9 mph - N/A   Scattered Clouds
12:55 PM 42.3 °F 37.9 °F 22.8 °F 46% 29.96 in 10.0 mi South 6.9 mph - N/A   Scattered Clouds
1:15 PM 42.8 °F 40.1 °F 22.3 °F 44% 29.95 in 10.0 mi South 4.6 mph - N/A   Scattered Clouds
1:35 PM 43.3 °F - 20.8 °F 41% 29.95 in 10.0 mi Calm Calm - N/A   Scattered Clouds
1:55 PM 43.7 °F 39.1 °F 22.6 °F 43% 29.95 in 10.0 mi South 8.1 mph - N/A   Scattered Clouds
2:15 PM 43.9 °F 38.8 °F 22.6 °F 43% 29.94 in 10.0 mi South 9.2 mph - N/A   Scattered Clouds
2:35 PM 43.3 °F 38.1 °F 22.1 °F 43% 29.94 in 10.0 mi SSW 9.2 mph - N/A   Mostly Cloudy
2:55 PM 43.7 °F 39.1 °F 21.6 °F 41% 29.95 in 10.0 mi SW 8.1 mph - N/A   Overcast
3:15 PM 43.5 °F 37.9 °F 22.1 °F 43% 29.95 in 10.0 mi SW 10.4 mph - N/A   Overcast
3:55 PM 41.9 °F 35.4 °F 22.8 °F 47% 29.95 in 10.0 mi SW 11.5 mph - N/A   Overcast
4:15 PM 41.5 °F 35.4 °F 23.2 °F 48% 29.96 in 10.0 mi SW 10.4 mph - N/A   Overcast
4:35 PM 41.0 °F 34.7 °F 23.7 °F 50% 29.97 in 10.0 mi SW 10.4 mph - N/A   Overcast
4:55 PM 40.5 °F 35.8 °F 23.9 °F 52% 29.97 in 10.0 mi SW 6.9 mph - N/A   Overcast
5:15 PM 39.9 °F 33.4 °F 24.1 °F 53% 29.99 in 10.0 mi SW 10.4 mph - N/A   Overcast
5:35 PM 39.2 °F 33.0 °F 24.3 °F 55% 29.99 in 10.0 mi WSW 9.2 mph - N/A   Overcast
5:55 PM 37.9 °F 33.5 °F 25.5 °F 61% 29.99 in 10.0 mi SW 5.8 mph - N/A   Overcast
6:15 PM 37.0 °F 32.4 °F 26.2 °F 65% 30.00 in 10.0 mi SSW 5.8 mph - N/A   Scattered Clouds
6:35 PM 36.3 °F - 26.6 °F 68% 30.00 in 10.0 mi Calm Calm - N/A   Scattered Clouds
6:55 PM 33.8 °F - 26.2 °F 74% 30.01 in 10.0 mi Calm Calm - N/A   Clear
7:15 PM 32.2 °F - 26.6 °F 80% 30.01 in 10.0 mi Calm Calm - N/A   Clear
7:35 PM 28.8 °F - 24.4 °F 84% 30.02 in 10.0 mi Calm Calm - N/A   Clear
7:55 PM 29.3 °F - 26.2 °F 88% 30.02 in 10.0 mi Calm Calm - N/A   Clear
8:15 PM 28.4 °F - 26.6 °F 93% 30.02 in 10.0 mi Calm Calm - N/A   Clear
8:35 PM 28.4 °F - 23.7 °F 83% 30.03 in 10.0 mi Calm Calm - N/A   Clear
8:55 PM 26.2 °F - 24.6 °F 94% 30.03 in 10.0 mi Calm Calm - N/A   Clear
9:15 PM 27.0 °F - 25.0 °F 92% 30.03 in 10.0 mi Calm Calm - N/A   Clear
9:35 PM 23.2 °F - 21.7 °F 94% 30.03 in 10.0 mi Calm Calm - N/A   Clear
9:55 PM 25.2 °F - 24.3 °F 96% 30.04 in 10.0 mi Calm Calm - N/A   Clear
10:15 PM 24.6 °F - 23.5 °F 96% 30.04 in 10.0 mi Calm Calm - N/A   Clear
10:35 PM 24.6 °F 16.7 °F 23.5 °F 96% 30.04 in 10.0 mi NNE 6.9 mph - N/A   Clear
10:55 PM 25.2 °F - 24.4 °F 97% 30.04 in 10.0 mi Calm Calm - N/A   Clear
11:35 PM 24.1 °F - 23.0 °F 96% 30.04 in 10.0 mi Calm Calm - N/A   Clear
11:55 PM 21.0 °F - 18.9 °F 91% 30.04 in 5.0 mi Calm Calm - N/A   Clear